Temp
74 78 81 83 83 83 83 83 83 83 83 83 83 83 83 83 83 83 83 83 83 82 83 84 84 84 84 84 84 84 84 84 84 83 83 83 83 83 83 83 83 82 83
78 79 82 83 83 83 83 83 83 83 83 83 83 83 83 83 83 83 83 83 83 83 84 84 84 84 83 84 84 83 84 83 84 84 85 85 84 83 83 83 83 82 82
78 81 82 83 83 83 83 83 83 83 83 83 83 83 84 84 84 84 84 84 84 84 84 84 84 84 84 84 84 84 84 84 84 84 82 77 81 84 83 83 83 83 82
80 80 81 82 83 83 83 83 83 84 83 83 83 83 84 84 84 84 84 84 84 84 84 84 84 84 83 84 84 83 83 84 85 81 78 80 83 84 83 83 83 82 82
79 80 81 82 83 83 83 83 83 83 84 83 83 84 84 84 84 84 84 84 83 83 84 84 84 84 84 83 83 83 83 84 81 80 76 74 75 83 83 83 82 83 82
79 80 82 83 83 83 83 83 84 83 83 83 84 84 84 84 84 84 84 84 84 84 84 83 84 83 83 84 83 83 83 82 80 77 76 74 76 83 83 83 83 83 82
77 79 81 83 83 83 83 84 84 84 83 83 83 84 84 84 84 84 83 83 83 83 83 83 83 83 83 83 82 83 82 79 72 73 74 74 74 82 83 83 83 83 82
78 80 81 83 83 83 84 84 84 84 84 84 84 84 84 83 83 83 83 83 83 83 83 83 83 83 83 83 83 83 83 79 74 73 74 73 75 81 84 83 83 83 83
80 79 80 81 83 84 84 84 84 84 84 84 84 84 84 83 83 83 82 82 83 83 83 83 83 83 83 83 83 82 83 78 74 72 74 71 74 79 84 83 83 83 82
78 79 78 78 79 79 80 84 84 84 83 83 83 83 84 84 85 84 82 82 82 83 83 83 83 83 83 83 82 81 83 83 73 73 73 73 77 80 84 83 83 83 82
78 78 78 78 77 76 78 80 83 83 83 83 82 83 81 75 76 81 80 82 83 83 83 83 83 83 84 83 81 82 83 72 74 73 73 76 78 83 84 83 82 82 82
75 76 78 78 78 77 81 77 76 76 75 75 75 75 73 73 74 78 79 83 83 82 82 83 83 83 83 74 74 76 72 72 72 73 73 77 79 82 82 81 81 82 82
77 78 78 78 78 78 79 74 74 74 73 73 73 72 72 72 71 72 71 72 72 79 75 78 77 75 76 73 73 72 72 73 72 71 74 79 79 81 83 83 83 82 82
78 79 79 79 78 78 77 75 74 73 70 70 70 73 72 70 69 70 69 70 70 71 72 72 72 73 74 73 73 71 71 72 72 71 72 78 80 81 81 83 83 83 83
78 79 79 79 78 79 76 74 71 72 71 71 70 72 72 71 70 69 69 69 70 71 71 69 71 72 72 73 73 73 72 72 73 72 72 78 79 80 82 83 83 83 83
82 80 81 78 77 79 76 73 72 72 72 70 71 72 72 72 71 70 69 70 70 70 71 71 70 72 72 72 73 73 73 72 74 74 72 74 80 81 82 83 83 83 83
82 81 81 78 76 76 75 74 73 72 72 71 72 72 72 72 72 72 70 69 70 71 72 72 72 72 73 75 73 74 75 73 73 75 74 75 76 81 82 82 83 82 83
83 81 82 84 78 76 77 73 72 70 70 70 71 72 72 72 73 72 70 70 71 71 72 71 71 71 75 72 72 72 74 73 73 75 76 73 76 81 81 82 82 82 82
80 82 82 83 77 76 75 73 72 71 70 70 70 71 72 72 73 72 72 72 72 71 71 73 71 71 71 72 72 74 75 74 73 78 75 75 75 78 76 80 81 81 83
79 83 83 82 80 78 74 73 72 72 72 72 71 71 71 72 72 72 72 72 72 71 71 71 71 71 72 71 76 73 71 71 72 72 73 77 77 78 77 75 78 79 81
81 82 82 80 78 76 74 71 70 70 71 72 72 72 71 72 73 72 70 72 71 71 72 72 71 71 71 72 69 69 70 72 71 71 74 72 77 78 76 76 76 76 78
82 80 77 79 77 77 76 76 72 72 71 72 72 72 73 73 73 72 69 70 71 71 71 71 71 69 69 70 68 66 64 69 70 74 74 76 75 77 78 77 77 76 75
78 79 78 77 76 75 77 74 73 72 72 70 70 71 72 73 73 72 71 70 70 70 70 70 70 69 68 70 70 67 63 62 64 70 72 73 76 75 77 78 78 78 76
81 82 79 76 74 74 73 73 72 71 69 70 73 73 73 73 72 74 73 71 73 69 70 70 71 70 70 68 70 72 69 68 64 65 70 73 74 78 77 76 79 79 77
82 83 79 77 73 72 72 71 70 71 72 72 71 72 72 72 73 74 73 72 72 72 71 70 71 71 71 69 68 68 68 68 67 65 64 68 72 72 74 77 79 79 79
80 82 79 77 76 74 72 72 73 73 72 71 70 71 72 73 73 73 73 72 71 70 71 73 73 70 72 71 69 69 67 67 65 65 64 66 68 72 74 75 78 78 79
MSLP
1013.40 1013.14 1012.97 1013.09 1013.32 1013.50 1013.67 1013.95 1014.01 1014.24 1014.51 1014.72 1014.83 1014.91 1015.21 1015.53 1015.84 1016.06 1016.22 1016.40 1016.69 1017.03 1017.04 1017.12 1017.23 1017.34 1017.38 1017.47 1017.49 1017.50 1017.70 1017.89 1018.09 1018.11 1018.24 1018.34 1018.33 1018.34 1018.58 1018.52 1018.38 1018.46 1018.41
1013.01 1013.20 1013.24 1013.28 1013.60 1013.78 1013.82 1014.11 1014.26 1014.50 1014.73 1015.04 1015.12 1015.17 1015.42 1015.71 1016.04 1016.33 1016.56 1016.76 1016.97 1017.23 1017.31 1017.43 1017.60 1017.69 1017.85 1017.88 1017.85 1017.93 1018.10 1018.23 1018.34 1018.57 1018.63 1018.57 1018.68 1018.77 1018.78 1018.79 1018.86 1018.86 1018.90
1013.13 1013.16 1013.32 1013.44 1013.70 1014.03 1014.19 1014.32 1014.53 1014.73 1015.02 1015.21 1015.33 1015.49 1015.77 1016.05 1016.19 1016.27 1016.64 1016.91 1017.20 1017.38 1017.54 1017.70 1017.87 1018.09 1018.29 1018.21 1018.26 1018.37 1018.39 1018.63 1018.64 1018.83 1018.90 1019.12 1019.00 1019.17 1019.18 1019.18 1019.12 1019.23 1019.25
1012.98 1013.30 1013.44 1013.63 1013.86 1014.18 1014.40 1014.57 1014.84 1015.09 1015.42 1015.61 1015.62 1015.79 1016.05 1016.44 1016.58 1016.30 1016.79 1017.13 1017.38 1017.66 1017.83 1017.94 1018.03 1018.29 1018.46 1018.45 1018.48 1018.73 1018.88 1018.87 1018.83 1019.17 1019.36 1019.21 1019.08 1019.16 1019.29 1019.48 1019.31 1019.41 1019.52
1013.18 1013.44 1013.61 1013.83 1014.16 1014.47 1014.66 1014.90 1015.09 1015.19 1015.45 1015.78 1015.93 1016.21 1016.40 1016.62 1017.03 1016.50 1016.97 1017.36 1017.69 1017.90 1018.06 1018.13 1018.32 1018.54 1018.79 1018.78 1018.81 1019.23 1019.23 1019.15 1019.15 1019.09 1019.22 1019.55 1019.47 1019.27 1019.30 1019.57 1019.50 1019.47 1019.71
1013.39 1013.55 1013.70 1013.96 1014.30 1014.64 1014.86 1015.03 1015.41 1015.63 1015.71 1016.05 1016.24 1016.44 1016.55 1016.89 1017.03 1017.02 1017.24 1017.53 1017.87 1018.10 1018.42 1018.44 1018.60 1018.71 1019.11 1019.01 1018.92 1019.18 1019.37 1019.47 1019.40 1018.84 1018.89 1019.61 1019.78 1019.51 1019.45 1019.48 1019.55 1019.55 1019.78
1013.66 1013.78 1013.97 1014.22 1014.48 1014.78 1015.01 1015.35 1015.62 1015.93 1016.09 1016.23 1016.52 1016.57 1016.79 1017.03 1017.09 1017.11 1017.46 1017.84 1018.09 1018.37 1018.63 1018.61 1018.74 1018.74 1019.08 1019.02 1018.90 1019.10 1019.53 1019.96 1020.06 1019.75 1019.78 1019.82 1020.10 1019.75 1019.60 1019.55 1019.53 1019.64 1019.98
1013.59 1013.87 1014.18 1014.43 1014.72 1015.01 1015.22 1015.49 1015.75 1016.02 1016.31 1016.50 1016.70 1016.90 1016.92 1017.03 1017.25 1017.43 1017.42 1017.85 1018.26 1018.50 1018.67 1018.74 1018.79 1018.83 1019.04 1019.10 1019.26 1019.24 1019.43 1020.07 1020.28 1020.10 1019.84 1020.10 1020.16 1020.02 1019.73 1019.62 1019.72 1019.72 1020.06
1013.44 1013.92 1014.32 1014.64 1014.93 1015.13 1015.34 1015.63 1015.86 1016.04 1016.39 1016.66 1016.79 1017.09 1017.34 1017.32 1017.26 1017.43 1017.63 1017.93 1018.30 1018.51 1018.61 1018.66 1018.74 1018.94 1019.11 1019.24 1019.27 1019.34 1019.37 1019.89 1019.96 1020.03 1020.13 1020.07 1020.13 1020.15 1019.74 1019.72 1019.77 1019.87 1020.06
1013.76 1013.90 1014.42 1014.74 1015.00 1015.26 1015.46 1015.66 1015.91 1016.17 1016.50 1016.71 1016.94 1017.12 1017.29 1017.33 1017.12 1017.25 1017.55 1017.91 1018.15 1018.43 1018.54 1018.64 1018.58 1018.72 1018.92 1019.11 1019.22 1019.03 1019.13 1019.02 1019.30 1019.12 1019.17 1019.63 1019.78 1019.74 1019.62 1019.62 1019.62 1019.75 1020.00
1014.06 1014.15 1014.23 1014.58 1014.93 1015.22 1015.58 1015.71 1015.80 1016.06 1016.38 1016.61 1016.78 1016.87 1017.06 1017.30 1017.31 1017.33 1017.56 1017.76 1017.95 1018.23 1018.41 1018.51 1018.45 1018.51 1018.61 1018.63 1018.83 1018.90 1018.95 1019.35 1019.46 1019.47 1019.42 1019.26 1019.38 1019.12 1019.31 1019.42 1019.58 1019.50 1019.73
1013.99 1014.31 1014.47 1014.49 1014.64 1015.20 1015.29 1015.44 1015.57 1015.80 1015.98 1016.19 1016.53 1016.79 1016.96 1017.20 1017.29 1017.49 1017.50 1017.61 1017.79 1018.02 1018.20 1018.31 1018.16 1018.20 1018.29 1018.58 1018.83 1018.90 1019.29 1019.69 1019.56 1019.43 1019.52 1019.35 1019.17 1019.12 1019.12 1019.42 1019.29 1019.28 1019.51
1013.32 1013.97 1014.27 1014.51 1014.65 1014.77 1014.78 1015.11 1015.46 1015.58 1015.86 1015.80 1016.17 1016.77 1017.07 1017.08 1017.18 1017.41 1017.62 1017.80 1017.84 1017.85 1018.03 1018.10 1018.05 1018.25 1018.29 1018.60 1018.81 1018.82 1018.80 1018.36 1019.08 1019.33 1019.18 1019.16 1019.12 1018.79 1018.64 1018.90 1019.04 1019.11 1019.21
1013.02 1013.45 1013.99 1014.26 1014.56 1014.69 1014.74 1015.02 1015.16 1015.41 1015.69 1015.89 1016.21 1016.64 1016.77 1016.99 1017.07 1017.36 1017.57 1017.75 1017.88 1017.87 1017.89 1017.93 1017.99 1018.19 1018.05 1018.32 1018.58 1018.37 1018.51 1018.15 1018.19 1018.72 1018.64 1018.31 1018.30 1018.47 1018.52 1018.46 1018.63 1018.81 1018.97
1012.62 1013.00 1013.46 1013.86 1014.03 1014.06 1014.67 1014.73 1015.05 1015.37 1015.67 1015.74 1016.04 1016.37 1016.67 1016.93 1016.91 1017.12 1017.32 1017.51 1017.67 1017.70 1017.72 1017.79 1017.90 1017.88 1017.96 1017.93 1018.16 1017.99 1017.80 1017.69 1017.75 1018.02 1017.92 1017.61 1017.85 1018.11 1018.21 1018.19 1018.26 1018.48 1018.67
1011.96 1012.65 1013.08 1013.48 1013.67 1013.73 1014.42 1014.64 1014.82 1014.88 1015.25 1015.65 1015.85 1016.05 1016.37 1016.49 1016.55 1016.75 1017.02 1017.21 1017.35 1017.48 1017.51 1017.60 1017.65 1017.60 1017.58 1017.59 1017.87 1017.65 1017.74 1017.56 1017.57 1017.85 1017.81 1017.42 1017.39 1017.47 1017.86 1018.09 1018.11 1018.21 1018.39
1011.03 1011.71 1012.41 1012.99 1013.38 1013.70 1014.22 1014.27 1014.32 1014.55 1014.91 1015.25 1015.43 1015.67 1016.04 1016.09 1016.29 1016.19 1016.57 1016.89 1016.93 1017.10 1017.24 1017.35 1017.28 1017.21 1017.23 1017.07 1017.33 1017.47 1017.41 1017.45 1017.44 1017.48 1017.24 1017.23 1017.07 1017.25 1017.43 1017.57 1017.72 1017.95 1018.09
1010.36 1010.98 1011.67 1012.45 1013.15 1013.28 1013.65 1013.93 1014.23 1014.33 1014.57 1014.90 1015.24 1015.49 1015.78 1015.76 1015.92 1016.21 1016.32 1016.24 1016.24 1016.65 1016.84 1017.08 1017.19 1017.21 1017.11 1017.15 1017.11 1016.85 1016.94 1016.74 1016.95 1017.11 1017.08 1016.85 1016.95 1016.97 1017.10 1017.20 1017.35 1017.65 1017.82
1009.82 1010.33 1010.87 1011.47 1012.25 1012.84 1013.08 1013.65 1013.99 1014.41 1014.62 1014.75 1015.21 1015.42 1015.49 1015.42 1015.48 1015.64 1015.88 1015.76 1015.68 1016.09 1016.45 1016.73 1016.93 1017.12 1016.98 1016.95 1016.94 1016.77 1016.64 1016.73 1016.54 1016.35 1016.45 1016.64 1016.63 1016.50 1016.75 1016.87 1017.03 1017.26 1017.45
1009.49 1009.81 1010.37 1010.72 1011.50 1012.55 1012.88 1013.71 1014.32 1014.36 1014.58 1014.72 1015.09 1015.09 1015.15 1015.26 1015.23 1015.37 1015.47 1015.41 1015.56 1015.89 1016.15 1016.55 1016.70 1016.85 1016.82 1016.70 1016.79 1016.83 1016.67 1016.47 1016.34 1016.11 1016.20 1016.22 1016.25 1016.11 1016.41 1016.70 1016.84 1017.04 1017.14
1009.19 1009.71 1010.22 1010.73 1010.99 1011.72 1012.77 1013.75 1014.19 1014.21 1014.28 1014.44 1014.40 1014.58 1014.69 1015.04 1015.02 1015.15 1015.33 1015.50 1015.51 1015.75 1015.93 1016.35 1016.57 1016.60 1016.64 1016.60 1016.91 1016.83 1016.67 1016.21 1016.03 1015.87 1015.68 1015.99 1015.90 1015.94 1016.17 1016.46 1016.68 1016.74 1016.77
1008.96 1009.51 1010.21 1010.70 1011.15 1011.40 1011.92 1012.74 1013.18 1013.56 1013.84 1013.88 1014.01 1014.18 1014.25 1014.63 1014.78 1015.00 1015.30 1015.46 1015.48 1015.72 1015.86 1016.24 1016.44 1016.54 1016.53 1016.55 1016.90 1017.34 1017.14 1016.44 1015.92 1015.54 1015.35 1015.65 1015.64 1015.52 1015.70 1015.98 1016.09 1016.19 1016.38
1009.43 1009.54 1009.91 1010.27 1010.69 1011.16 1011.48 1012.27 1013.06 1013.54 1013.86 1014.16 1014.22 1014.13 1013.90 1013.96 1014.23 1014.52 1014.74 1014.93 1015.14 1015.38 1015.64 1015.94 1016.14 1016.36 1016.61 1016.54 1016.42 1016.61 1017.10 1016.91 1016.38 1015.39 1015.13 1015.09 1015.15 1015.15 1015.08 1015.12 1015.33 1015.52 1015.78
1009.21 1009.59 1009.58 1010.08 1010.54 1010.86 1011.32 1011.91 1012.39 1012.95 1013.44 1013.44 1013.35 1013.64 1013.68 1013.53 1013.72 1013.86 1014.02 1014.36 1014.65 1015.03 1015.42 1015.51 1015.72 1015.99 1016.15 1016.34 1016.29 1015.97 1016.08 1016.33 1016.56 1016.25 1015.18 1014.73 1014.69 1014.74 1014.53 1014.60 1014.58 1014.85 1015.05
1009.30 1009.42 1009.75 1009.86 1010.58 1010.80 1011.06 1011.43 1012.07 1012.46 1012.78 1012.75 1013.21 1013.27 1013.33 1013.28 1013.24 1013.45 1013.69 1013.90 1014.26 1014.48 1014.76 1014.95 1015.28 1015.53 1015.46 1015.91 1016.17 1016.01 1016.06 1016.15 1016.31 1016.54 1016.15 1015.31 1014.70 1014.15 1013.99 1014.00 1013.97 1014.15 1014.32
1008.77 1009.13 1009.50 1009.39 1009.39 1009.94 1010.44 1011.03 1011.40 1011.72 1012.22 1012.62 1012.74 1012.96 1012.93 1012.91 1012.83 1012.79 1012.94 1013.39 1013.58 1013.91 1014.09 1014.15 1014.57 1014.93 1014.96 1015.10 1015.75 1015.98 1016.02 1016.07 1016.21 1016.31 1016.11 1015.56 1014.95 1014.16 1013.54 1013.36 1013.51 1013.45 1013.59
Wind_Speed
6 11 19 20 20 20 20 20 20 21 21 20 20 20 20 19 18 17 15 14 13 13 15 14 13 13 14 16 16 17 17 16 16 15 13 14 14 15 14 13 16 10 15
12 12 19 20 19 20 20 19 20 20 20 19 19 19 19 19 18 17 16 16 15 15 15 14 13 13 14 15 14 15 16 14 13 13 11 10 14 13 12 13 15 11 13
13 14 16 20 21 20 20 20 20 20 20 19 19 18 18 18 17 18 17 16 15 15 15 14 13 13 13 13 13 13 14 12 11 11 8 4 6 11 12 12 13 13 13
13 12 15 20 20 21 20 20 19 20 20 18 18 17 18 17 18 20 17 15 15 14 14 12 12 11 11 10 10 11 10 10 11 11 4 3 5 10 11 11 13 13 12
12 11 15 20 20 20 20 20 19 20 20 19 19 18 18 18 14 19 17 15 14 13 12 12 10 9 9 7 7 9 9 9 5 4 4 4 1 6 10 11 11 12 11
13 12 18 20 21 20 19 19 19 19 19 18 19 19 19 17 16 16 16 14 13 11 11 10 8 8 7 5 4 5 7 8 5 4 2 2 3 7 8 10 12 11 11
12 11 14 19 19 19 19 18 18 18 18 18 18 20 18 17 16 16 14 12 11 10 8 8 6 5 6 2 2 3 5 10 1 3 3 3 5 10 11 9 10 10 9
14 12 12 18 18 18 19 18 17 17 15 15 15 16 18 18 16 14 14 10 8 8 5 5 3 1 2 1 1 3 2 15 5 1 4 5 8 13 13 11 11 10 11
15 13 10 11 15 18 17 18 17 16 14 13 13 12 13 14 15 14 12 10 7 5 3 2 2 1 2 2 4 4 4 15 5 5 6 4 11 16 13 13 13 12 10
13 13 10 8 7 9 9 18 16 15 13 12 10 10 11 13 7 12 11 8 7 4 2 1 3 4 4 4 4 4 3 6 9 8 5 5 16 19 15 15 15 13 13
11 12 12 10 9 6 7 9 14 16 14 12 11 11 8 1 0 7 9 9 7 5 1 2 4 5 5 6 4 6 3 2 5 4 4 10 14 15 16 15 16 15 13
13 12 11 12 12 10 8 6 7 8 6 6 5 5 4 4 3 4 7 12 8 5 3 5 7 9 8 1 1 4 2 4 3 3 4 14 13 18 20 16 15 14 15
16 12 13 12 11 12 9 6 4 4 3 5 6 4 4 3 3 2 2 2 0 5 2 3 4 3 5 3 2 3 2 3 2 3 7 12 15 15 17 16 16 17 16
16 15 15 13 12 11 7 7 7 5 4 3 3 5 4 3 4 3 3 4 3 2 4 4 2 4 6 3 5 5 3 5 4 4 7 15 13 14 16 15 16 18 17
15 16 16 14 13 12 10 7 6 5 4 4 4 4 3 3 4 4 4 3 3 3 4 4 3 4 4 5 5 5 6 6 7 5 4 10 15 17 17 15 15 19 18
16 15 16 15 12 12 10 9 7 7 6 4 4 5 6 4 4 4 3 4 3 3 4 4 5 5 5 4 6 7 9 7 7 9 7 6 13 11 15 15 15 17 19
15 16 18 16 12 12 12 11 8 6 6 6 6 6 7 6 5 5 4 4 4 4 5 5 5 4 4 4 5 6 8 10 10 10 8 5 4 15 16 16 17 17 17
14 17 17 15 15 13 12 9 5 5 6 5 4 4 6 7 7 4 4 5 5 4 4 4 4 4 5 3 3 5 3 6 8 8 8 5 6 6 10 16 16 16 17
15 15 16 16 16 14 10 9 7 6 5 3 4 4 6 6 7 6 6 5 5 4 4 4 4 3 3 3 4 5 3 4 7 7 6 7 7 7 4 10 15 16 18
12 15 16 13 16 15 8 6 4 4 5 6 7 6 6 6 7 6 6 5 4 4 3 3 5 4 4 3 2 2 4 4 4 4 5 6 6 8 7 6 7 8 16
11 14 15 14 12 9 6 5 3 5 5 6 6 8 8 5 8 7 3 4 3 3 4 4 3 5 3 1 1 2 3 5 5 6 4 5 7 7 7 7 5 5 7
15 12 10 13 12 10 7 6 3 4 3 3 5 7 9 9 9 7 5 4 4 3 4 4 4 2 2 3 3 1 3 5 3 6 4 6 7 5 8 9 9 9 7
12 13 14 14 13 10 9 5 3 3 3 2 4 5 8 10 9 9 7 6 5 3 4 4 4 5 3 3 6 4 2 4 2 2 5 5 6 6 6 9 11 10 9
10 9 12 11 12 9 8 7 6 5 4 4 6 6 8 10 10 10 8 7 7 4 5 4 3 4 3 4 2 3 3 3 2 4 2 3 5 8 8 6 9 9 10
2 10 10 11 9 7 9 9 6 5 4 3 3 6 7 6 8 9 8 8 8 6 6 5 4 5 4 2 3 1 2 2 2 2 4 4 3 4 5 7 8 8 10
6 5 9 12 13 11 11 9 10 9 7 5 4 5 6 5 6 9 10 9 8 7 8 8 7 7 7 6 3 4 3 2 3 3 3 4 3 4 4 5 7 8 7
Wind_Direction
141 141 136 129 123 119 116 114 110 106 103 102 103 101 104 104 104 103 105 112 116 113 104 104 102 107 104 103 105 108 112 110 112 113 119 121 128 122 115 120 112 109 111
138 141 137 131 128 122 119 116 110 109 108 106 104 105 106 106 106 106 105 108 113 105 104 105 106 105 104 107 111 113 110 112 114 115 120 122 121 123 119 110 110 115 116
141 141 138 136 131 127 122 119 115 113 112 111 108 108 108 111 113 110 108 102 96 101 103 106 108 108 101 105 110 108 112 115 118 103 87 55 102 123 127 125 122 123 125
139 144 141 137 133 133 129 124 122 121 118 114 112 111 110 113 116 107 102 100 106 106 106 108 110 106 100 113 111 103 104 116 121 70 20 30 125 132 130 134 130 130 131
137 141 146 139 138 137 131 129 133 133 130 126 121 117 113 112 106 105 104 99 94 96 103 108 107 104 98 93 99 107 113 105 74 68 89 19 28 146 148 147 143 136 136
139 145 145 145 144 141 140 139 136 133 133 133 129 125 121 118 115 105 104 102 102 99 96 94 94 102 100 120 119 114 122 115 170 221 183 68 265 184 166 166 169 152 153
139 147 149 149 147 145 143 141 140 141 140 140 137 132 129 126 121 117 106 102 101 94 94 97 89 93 97 102 224 150 129 125 71 317 323 292 280 205 179 188 171 156 168
144 146 154 152 152 151 147 144 144 146 148 149 149 143 136 129 120 113 113 109 102 101 94 101 106 85 114 214 288 306 321 133 108 304 291 288 277 225 199 181 180 176 175
142 148 150 155 159 157 154 153 155 154 157 159 159 161 153 142 132 128 125 122 114 114 117 131 170 233 268 273 283 292 290 135 175 202 218 229 265 266 201 196 191 184 184
145 146 150 151 156 163 169 165 166 162 163 165 165 171 178 181 205 159 138 142 145 146 142 163 235 226 261 272 279 278 237 185 182 235 248 211 229 255 227 204 194 188 190
152 154 158 159 158 156 158 181 175 171 173 181 190 193 201 176 245 183 174 162 147 142 205 258 278 275 271 284 347 357 222 153 161 222 241 239 239 222 233 226 203 191 193
161 164 164 168 165 158 168 183 170 172 172 189 206 208 174 185 194 212 216 203 187 188 261 267 275 267 268 128 49 33 49 147 208 223 240 241 261 246 237 231 212 201 197
167 168 173 175 173 170 173 178 173 174 184 180 179 213 200 189 210 199 208 303 49 236 255 275 269 287 260 168 96 120 194 206 199 223 237 238 235 253 225 227 217 211 206
171 173 173 179 175 186 171 179 182 184 190 182 181 213 190 199 199 204 202 211 226 222 255 250 263 258 256 191 178 204 192 249 215 215 228 253 255 271 241 221 223 216 212
176 176 178 178 180 184 180 187 179 200 200 191 187 213 219 196 206 196 208 203 224 223 236 254 256 261 245 245 193 228 203 243 257 260 255 252 240 252 250 236 225 216 214
180 177 181 182 182 181 177 188 187 182 200 186 194 208 202 204 206 199 202 208 218 211 234 245 239 238 240 226 191 213 227 232 226 236 256 248 236 253 242 237 225 216 214
187 170 179 179 175 184 173 188 191 181 184 195 202 203 200 204 213 201 197 203 216 210 226 246 252 242 258 266 233 192 213 203 215 228 231 228 223 237 240 229 217 217 219
177 175 176 174 179 186 181 185 189 184 184 184 193 201 206 211 208 199 220 213 210 204 213 220 236 258 262 241 270 276 226 192 206 226 227 220 220 219 228 234 215 216 218
176 169 172 173 175 188 183 174 184 179 176 191 205 206 210 216 215 212 228 236 199 207 207 216 216 209 264 273 265 280 255 209 203 203 208 219 217 207 197 228 215 214 217
170 173 175 171 175 186 171 162 171 177 183 183 209 207 202 220 222 221 226 228 220 203 205 201 213 212 225 220 290 300 270 250 241 235 202 219 217 208 194 199 216 222 218
172 174 177 174 183 158 155 159 163 182 176 187 193 195 207 219 232 226 236 244 245 209 203 198 205 207 242 222 49 304 290 242 234 244 207 201 220 208 200 203 199 212 220
185 178 169 182 179 176 173 167 157 150 201 182 179 193 205 207 217 219 211 236 229 225 233 220 209 206 244 198 175 117 310 322 292 223 204 201 212 197 197 201 206 209 208
186 181 178 180 183 180 171 133 103 75 72 168 205 210 211 207 212 206 208 210 223 196 224 215 208 190 215 236 219 156 149 234 323 310 226 206 204 204 205 196 209 207 207
190 194 178 174 176 179 155 159 161 173 179 202 196 199 204 203 211 211 210 204 215 198 217 212 219 212 177 230 266 222 207 155 187 327 311 252 210 217 207 201 211 209 209
186 176 189 174 170 172 170 172 177 187 205 198 188 187 206 201 201 210 209 207 209 203 214 218 205 208 204 216 215 270 235 220 197 186 278 306 297 230 200 199 209 213 209
158 159 179 187 189 181 176 181 189 196 199 203 198 205 208 206 205 207 204 208 210 204 211 220 212 212 216 213 205 229 214 219 225 211 220 274 235 280 234 200 204 213 205